Wind_Speed
36 35 34 33 32 32 32 32 32 31 30 29 29 30 30 29 28 28 28 28 27 28 28 28 28 28 26 25 25 26 25 24 23 23 22 21 20 19 19 19 19 18 17 15 15 14 12 12 11 11 10 10 9 9 9 8 8 11 12 10 8 8 8 8 7 8 12 13 12 13 14 14 15 14 14 15 15 14 15 16 18 19 20 21 22
36 36 34 34 34 33 32 32 33 32 31 30 30 31 31 30 30 29 29 30 30 29 30 30 30 30 29 28 27 28 28 27 25 25 24 23 21 20 20 21 22 22 21 20 18 16 14 13 12 12 11 10 10 10 9 9 9 10 9 6 6 7 7 8 8 8 12 15 15 16 16 15 16 16 16 16 16 16 16 16 17 19 20 20 22
35 35 35 35 35 34 33 32 33 32 31 31 31 31 31 31 32 32 31 31 31 31 32 32 32 32 31 30 30 30 30 29 27 26 26 25 24 23 23 22 22 24 24 22 20 18 16 15 14 13 12 11 11 11 10 9 9 8 6 6 7 8 8 9 9 9 11 14 16 16 16 16 18 19 18 18 18 17 17 18 18 19 19 20 21
34 35 35 35 34 35 34 33 33 33 32 32 32 32 31 31 33 34 32 29 31 33 33 33 33 34 33 33 33 32 32 31 29 28 28 27 27 25 25 24 23 22 22 21 20 19 18 17 16 14 13 12 11 11 10 9 10 9 8 9 9 9 10 10 11 11 11 13 15 16 16 17 19 19 19 18 18 18 18 17 18 19 19 20 20
33 34 34 34 34 35 35 33 33 34 33 32 33 33 31 31 32 34 32 30 31 33 34 33 34 35 35 35 35 34 33 33 31 29 28 29 29 27 25 24 23 23 22 21 20 20 19 18 17 15 14 13 12 11 11 11 11 10 10 11 10 10 11 11 12 13 13 14 16 17 17 18 18 19 18 18 19 19 18 18 18 19 20 20 21
34 34 34 34 35 35 36 35 35 35 35 33 33 33 33 31 31 33 33 32 31 32 35 35 35 36 37 36 36 36 34 33 33 30 28 28 29 28 26 25 23 23 23 22 21 20 20 19 17 16 15 14 13 12 12 11 11 11 11 11 10 10 10 11 12 13 13 15 16 16 17 17 18 19 19 18 19 20 20 21 20 20 20 19 19
35 35 34 34 34 36 37 38 37 36 36 35 34 34 34 32 31 32 33 32 31 31 33 36 37 37 37 36 36 36 35 34 34 32 29 28 29 28 27 26 24 23 22 22 21 20 19 19 18 17 16 15 14 13 12 12 11 12 12 11 10 10 11 12 14 15 15 15 15 15 16 16 18 19 20 20 20 20 20 20 19 19 19 18 17
35 35 35 34 34 36 38 39 39 38 37 35 34 33 34 33 32 33 33 32 31 30 31 34 36 37 37 37 36 36 35 34 34 33 31 29 29 29 28 27 26 24 23 22 21 21 20 19 19 18 18 17 16 15 14 13 13 13 13 11 10 9 11 13 15 16 16 15 15 15 16 16 17 18 19 19 18 17 17 17 18 19 19 18 18
35 35 35 34 35 37 38 38 39 39 36 35 35 35 34 34 33 33 33 32 31 30 30 32 34 35 36 36 34 35 35 34 34 35 34 31 30 29 28 27 26 25 24 22 22 21 20 20 19 19 18 18 18 17 16 15 15 14 13 11 10 10 12 14 16 17 16 15 15 15 15 15 16 16 17 17 17 18 18 18 17 18 18 18 18
35 35 35 35 36 37 37 36 36 36 35 36 37 36 35 34 33 33 34 33 31 29 29 31 32 33 34 34 34 34 34 34 35 36 36 34 31 29 29 28 26 25 24 23 23 22 21 20 19 17 17 16 16 16 17 17 16 15 14 14 14 14 15 16 17 17 16 14 14 14 14 14 15 15 16 18 19 19 18 16 15 16 17 16 17
36 35 35 35 36 36 36 35 34 34 34 35 37 36 35 33 32 31 31 32 32 30 29 30 31 30 31 33 34 33 32 33 35 37 36 35 31 29 28 27 27 26 25 24 23 22 22 21 19 18 19 19 16 15 17 17 16 16 16 16 16 17 17 18 18 18 16 15 15 15 15 15 16 17 17 17 17 17 16 16 16 16 15 13 13
37 35 34 35 36 36 36 34 32 32 33 33 34 34 33 31 29 28 27 28 30 30 28 30 30 28 27 30 32 33 31 32 35 38 37 34 31 29 27 26 26 26 25 24 23 22 21 20 19 19 19 20 18 17 16 15 15 16 17 17 18 18 19 20 20 20 18 17 17 17 18 17 16 16 16 15 15 16 16 16 16 16 16 15 15
36 35 33 35 36 36 34 32 30 30 30 30 30 29 29 28 26 24 23 23 26 28 27 28 29 28 26 27 29 30 30 32 36 37 36 34 32 29 27 25 25 25 24 24 23 22 21 20 19 19 19 18 18 17 15 14 15 16 16 18 19 19 21 22 22 20 19 19 20 20 20 19 17 17 17 17 17 17 15 15 16 18 19 19 19
34 34 32 34 34 33 32 30 28 27 27 26 26 26 25 25 24 22 21 22 24 25 25 25 27 27 27 28 29 28 28 31 35 36 37 36 34 31 28 25 23 24 25 25 25 23 22 22 20 19 19 18 18 16 14 14 14 14 16 18 18 19 20 22 21 19 18 19 21 23 23 23 22 21 19 17 16 15 15 16 19 20 22 22 22
32 32 31 31 31 30 29 28 26 25 24 24 24 24 23 23 23 21 21 23 24 24 23 24 25 28 28 27 28 27 25 28 32 35 36 36 34 33 31 27 23 22 22 24 25 23 23 25 23 19 18 18 17 15 14 13 13 14 16 18 19 19 19 20 19 17 16 16 19 21 22 21 21 20 17 16 17 18 19 20 21 22 24 23 23
30 30 29 28 28 28 28 27 25 25 24 23 23 23 22 22 23 22 21 21 21 21 21 22 24 26 26 25 26 26 24 24 28 31 34 36 34 33 34 32 27 23 20 20 22 21 21 23 23 19 17 16 15 14 14 14 13 14 17 19 19 19 20 19 17 15 15 17 18 19 18 18 18 18 17 18 20 21 21 21 21 22 22 20 19
28 29 27 27 27 27 27 26 26 25 24 23 21 21 22 21 22 23 21 19 19 18 18 19 19 21 23 24 25 24 22 23 26 29 33 34 32 31 34 33 30 27 24 21 21 21 21 22 22 20 16 12 14 16 15 15 15 15 17 18 17 18 18 15 13 13 15 16 16 16 16 16 17 17 18 20 20 21 21 20 22 23 20 15 14
27 27 27 26 27 28 27 26 26 25 24 23 21 20 21 21 20 20 20 19 18 18 18 18 18 18 18 20 22 23 22 24 27 28 28 28 27 28 31 31 29 29 28 25 25 25 24 23 21 19 14 9 14 18 17 16 16 16 17 16 14 14 14 12 11 12 12 13 13 13 14 15 16 17 19 21 20 21 23 26 27 24 17 14 15
26 27 27 26 27 28 27 27 27 25 24 23 22 20 20 19 19 19 19 18 18 17 18 18 17 16 16 17 19 21 22 23 26 26 24 24 24 26 29 29 27 28 28 27 27 24 20 19 19 16 10 10 17 21 18 16 16 16 14 13 11 12 12 11 10 10 11 13 14 15 15 16 16 18 21 22 21 21 24 28 28 24 19 19 20
28 27 27 26 26 26 26 26 26 25 24 24 22 20 19 18 18 18 17 16 15 14 14 15 15 15 15 16 18 21 20 20 24 25 24 25 25 26 28 27 26 27 25 23 22 19 14 14 13 9 10 17 21 20 17 15 15 14 13 12 11 12 12 12 12 12 13 14 15 15 16 17 17 19 21 22 20 19 18 19 19 20 20 20 18
29 28 27 25 25 24 24 25 25 24 25 24 22 21 20 18 18 18 15 14 13 11 10 10 11 11 12 14 16 18 19 20 22 23 22 23 24 26 26 24 23 23 19 17 17 13 9 8 8 12 18 21 20 18 15 14 14 14 14 14 13 14 14 14 15 15 15 14 14 15 15 16 16 17 18 18 17 15 15 15 14 14 16 17 18
30 29 29 27 27 26 26 26 25 25 26 25 23 23 22 19 19 19 16 15 14 11 9 9 8 7 9 12 13 14 16 17 19 21 21 21 21 24 24 22 19 17 12 10 10 8 5 8 15 19 21 20 18 16 14 12 13 14 15 14 14 14 15 15 15 14 12 11 12 13 14 15 15 15 16 16 16 15 16 16 16 17 19 22 23
31 31 30 29 28 27 27 27 26 25 27 26 24 24 22 19 19 18 16 16 16 13 10 9 8 7 9 12 13 15 16 16 16 17 20 20 21 24 25 20 16 13 11 10 10 10 13 19 20 21 20 18 16 14 12 12 12 13 12 11 11 12 13 13 13 11 10 10 12 15 16 15 14 13 14 15 15 15 16 18 21 23 24 25 25
31 30 29 28 26 26 26 26 24 24 25 24 22 23 21 19 18 18 16 17 16 12 9 8 9 10 11 11 12 13 15 18 18 17 19 21 22 26 26 22 17 14 13 14 15 16 18 19 19 19 17 15 13 12 11 11 10 8 8 8 9 11 12 11 10 9 10 11 13 14 13 12 12 13 14 14 15 18 21 23 24 23 23 23 24
29 29 27 26 25 25 24 22 21 22 23 22 22 22 20 20 20 19 17 17 15 13 11 10 12 13 13 13 13 11 11 15 17 16 18 21 23 25 26 23 20 17 15 15 16 16 16 16 16 16 15 13 12 11 9 8 7 6 6 6 8 9 8 8 8 9 10 11 11 10 12 13 14 13 14 16 19 22 24 23 22 21 21 21 23
28 27 26 25 25 25 23 21 20 21 21 19 20 20 19 19 21 19 16 15 14 13 13 13 13 13 13 12 13 12 11 14 17 17 19 22 22 23 24 22 20 19 16 14 13 12 12 13 13 14 13 12 10 9 8 7 6 5 5 4 5 5 5 7 9 9 10 11 10 11 12 13 13 12 14 18 21 22 21 20 20 21 20 20 23
27 26 25 25 24 23 21 21 20 20 18 17 17 17 17 18 19 17 14 13 13 12 12 13 14 14 12 11 12 13 11 13 19 22 23 23 23 24 25 23 20 18 16 13 10 9 9 11 12 12 11 9 8 8 9 8 6 4 3 4 5 5 6 8 9 10 11 12 13 13 13 11 10 11 15 18 19 19 18 19 20 21 20 21 23
24 23 23 23 21 21 21 21 20 18 16 15 16 16 17 17 16 15 13 12 12 13 14 14 14 13 11 11 14 14 12 14 21 26 27 25 24 24 24 20 16 16 15 13 11 10 10 11 10 9 9 9 9 10 11 11 9 6 4 6 8 8 8 8 9 11 13 13 15 16 14 10 9 12 15 17 18 18 18 19 19 21 22 23 22
23 22 21 21 20 21 21 20 19 19 18 18 18 18 16 15 14 14 11 9 10 11 13 15 15 13 11 13 16 17 15 15 20 26 27 24 22 21 19 17 16 17 16 14 12 12 11 11 11 10 11 12 13 13 14 14 13 10 9 10 9 9 9 9 11 12 12 12 12 11 8 8 11 14 15 17 18 18 18 18 19 22 23 23 21
22 21 20 19 20 20 19 18 19 20 20 21 22 21 17 13 13 13 10 8 7 5 7 10 12 11 12 15 16 16 16 15 17 21 23 23 21 19 17 16 17 19 17 14 13 13 12 13 14 15 15 15 14 12 10 9 9 9 10 10 9 10 10 10 9 7 6 6 6 6 7 10 13 14 14 16 18 18 17 18 20 21 21 20 20
20 18 17 18 19 18 18 18 20 21 21 22 24 24 22 18 14 12 10 7 6 4 5 8 10 11 14 17 15 13 13 14 14 17 20 21 20 19 18 17 16 17 16 16 16 15 13 12 13 13 12 11 11 10 8 8 8 8 7 6 7 8 8 6 4 3 5 6 8 9 10 12 13 13 15 17 17 17 17 19 19 19 20 20 19
18 17 18 19 18 17 18 19 19 20 20 21 21 23 23 20 16 13 11 8 7 6 7 10 12 12 13 16 16 13 12 12 13 16 18 19 19 19 18 16 15 15 16 16 17 15 11 9 9 9 9 10 11 10 8 8 8 7 5 5 6 7 6 3 2 5 7 6 7 10 11 12 12 14 15 15 15 16 18 18 18 19 20 19 18
18 20 22 21 17 16 18 17 16 16 17 18 18 19 19 17 15 14 13 11 10 10 10 11 13 13 12 12 14 14 13 12 13 15 17 18 19 19 17 15 15 15 16 15 13 10 9 9 9 10 11 11 10 8 6 5 4 4 5 5 6 8 8 3 2 5 7 7 9 12 12 12 12 13 14 14 15 17 17 17 18 19 18 17 18
22 23 23 21 18 17 17 16 15 15 15 15 16 17 16 16 16 16 15 13 11 11 12 13 14 14 13 12 12 13 13 12 12 14 17 17 18 18 17 16 15 15 15 12 9 7 8 8 9 11 11 9 5 2 3 4 5 4 5 6 7 9 10 7 5 7 9 10 11 12 12 12 13 14 15 16 16 16 16 16 18 18 17 17 19
23 22 22 21 20 17 16 16 16 15 15 15 15 16 16 16 17 17 15 13 12 11 12 13 14 13 13 14 13 13 12 11 11 13 15 16 17 17 16 14 12 11 10 10 9 9 8 7 9 9 7 5 5 5 5 5 4 4 5 8 9 11 12 10 8 9 10 10 10 11 12 14 15 15 15 15 15 15 16 17 17 17 18 18 19
21 20 20 20 19 17 17 18 17 16 17 18 17 16 17 16 15 15 15 14 14 13 12 12 13 13 13 13 13 12 11 10 11 13 14 15 16 16 13 11 8 7 8 9 10 9 8 7 6 5 5 5 5 4 3 3 4 5 6 7 8 9 8 8 8 9 10 11 11 12 13 14 15 14 14 14 14 15 16 17 17 17 19 20 20
18 18 17 18 20 19 18 18 18 17 17 17 16 17 17 16 16 16 15 15 15 15 14 14 14 13 12 12 13 12 12 12 12 13 14 14 15 14 12 9 8 10 10 10 10 9 8 6 3 3 4 3 3 4 4 4 6 7 6 5 7 9 8 8 9 10 12 12 13 13 14 14 14 13 12 13 15 15 16 17 17 18 20 20 20
16 16 17 19 20 19 17 17 17 17 15 14 14 15 15 15 15 15 14 16 18 15 13 13 12 11 12 13 14 14 14 14 14 14 15 15 15 15 12 9 10 11 11 11 12 10 7 5 2 1 3 3 3 3 4 6 7 8 8 8 7 5 5 8 9 10 10 11 13 12 11 11 11 11 12 14 15 15 16 17 18 18 19 19 19
18 18 19 20 19 17 16 16 16 15 13 13 13 13 12 13 13 12 13 18 17 14 12 12 10 10 13 17 17 17 17 16 14 14 14 14 15 15 13 10 9 10 9 10 12 10 6 4 4 3 3 4 4 3 4 6 7 8 9 10 8 5 6 8 10 10 9 10 10 9 9 10 11 11 12 13 14 15 17 18 18 18 18 19 19
21 21 19 17 16 15 15 15 14 13 12 12 13 13 12 11 11 10 13 15 14 12 12 11 10 12 16 20 21 20 17 14 12 12 12 13 14 14 13 10 9 10 9 9 11 9 6 5 5 5 5 7 7 6 6 6 6 9 11 11 8 9 9 9 10 10 8 8 8 8 9 10 10 11 12 13 14 16 17 17 17 18 18 19 19
20 19 16 14 15 15 13 12 12 11 10 10 11 11 10 9 9 10 12 12 12 12 12 11 11 13 17 20 21 20 16 12 11 12 12 12 13 12 12 12 11 10 10 9 7 6 6 6 6 6 7 8 7 4 5 5 7 10 11 6 4 7 9 10 10 10 9 8 7 8 8 8 9 11 13 14 15 16 16 16 17 18 18 18 19
17 14 12 12 14 13 12 11 10 9 9 9 8 9 9 9 10 10 11 12 13 12 11 12 13 13 15 17 19 19 15 13 13 14 14 14 14 14 14 14 13 11 9 8 6 7 7 6 6 6 5 4 3 3 6 7 9 10 6 6 5 6 9 9 9 9 8 7 7 7 7 8 10 12 13 14 15 15 15 16 17 17 17 18 19
14 11 10 10 11 10 10 11 11 9 9 8 8 8 9 9 10 10 11 13 13 12 12 14 14 15 15 16 17 19 17 13 12 14 16 16 17 16 15 14 12 10 8 7 6 7 7 7 6 5 5 5 4 4 7 10 10 6 3 6 6 8 9 9 9 8 8 8 7 7 7 9 10 11 12 14 14 14 15 16 16 16 17 18 18
11 11 10 10 9 10 11 11 10 10 11 11 10 10 10 10 10 10 9 10 10 9 12 16 16 17 18 17 17 20 20 15 11 10 12 13 14 13 12 11 11 9 9 9 8 7 7 7 6 6 6 6 5 4 6 9 8 2 4 4 6 8 9 8 8 7 7 6 6 8 9 9 10 11 12 13 14 14 15 16 15 16 17 17 17
10 10 10 10 10 11 11 10 10 12 12 11 10 9 9 8 8 7 7 7 6 6 11 15 15 15 18 18 17 18 18 15 11 10 10 11 11 10 10 11 11 10 9 9 9 9 8 6 5 5 5 6 8 8 7 8 8 4 1 2 6 8 9 8 6 5 5 6 7 8 9 9 10 11 11 13 13 13 14 15 15 15 16 16 17
8 9 9 9 10 10 10 10 11 11 11 10 9 9 8 7 6 5 4 5 4 4 8 12 13 12 14 15 14 13 12 11 10 10 10 10 9 9 10 11 11 11 10 10 9 10 9 8 7 6 4 6 7 8 7 7 6 3 1 3 7 8 8 6 3 2 2 3 5 7 8 9 11 11 11 12 13 12 14 15 15 15 15 16 18
8 9 9 9 10 10 10 9 9 9 8 7 7 7 6 5 5 5 3 2 2 4 7 10 12 12 11 10 9 9 9 8 8 9 9 9 8 9 10 11 12 12 11 9 8 8 9 9 8 7 6 8 6 4 5 5 2 2 1 3 7 8 8 8 6 5 6 7 9 10 10 10 11 11 12 12 12 12 14 14 13 14 15 16 18
9 9 9 9 9 8 8 8 7 7 7 6 7 7 7 6 6 6 4 3 2 3 4 5 8 11 13 13 13 13 12 9 7 8 8 9 8 8 8 9 10 11 11 10 9 8 9 7 5 4 6 7 7 7 7 5 2 2 2 5 8 8 9 10 10 11 13 14 14 13 11 10 11 12 12 12 12 12 13 13 13 14 15 16 18
6 7 8 9 8 7 7 8 7 8 8 7 7 6 6 6 6 6 5 5 7 7 6 6 6 8 10 12 14 15 15 13 11 10 10 9 9 8 7 8 9 10 10 11 11 11 10 8 6 5 5 4 5 6 5 3 1 2 5 7 8 8 10 11 11 13 15 15 13 11 9 8 10 11 11 11 12 11 11 11 12 14 16 17 18
5 5 6 8 8 7 8 8 9 9 9 8 6 5 5 5 6 7 7 7 8 7 5 4 3 4 4 5 6 7 8 10 11 11 9 9 11 11 9 9 11 12 11 11 11 11 11 10 9 8 6 5 4 4 4 4 3 5 7 8 8 9 10 11 12 14 15 13 11 10 8 7 8 9 10 11 11 10 10 12 13 14 16 17 16
6 6 7 8 8 8 8 8 6 7 10 9 8 9 10 8 6 4 4 3 1 3 4 4 4 3 5 5 5 4 4 5 6 6 5 5 10 14 13 11 12 14 14 12 11 10 10 12 11 9 8 7 7 6 6 7 8 9 9 9 10 11 12 12 13 15 14 12 10 9 8 6 6 9 10 10 9 9 10 12 13 14 16 16 14
Wind_Direction
191 190 189 190 191 191 192 193 194 195 195 191 189 193 197 197 196 197 197 196 197 197 195 194 195 194 192 191 192 193 195 197 198 198 199 199 199 199 199 200 200 199 201 208 216 221 219 216 223 228 227 233 235 236 243 249 252 246 231 220 228 240 243 245 253 273 285 289 291 296 301 301 300 298 297 297 291 281 276 277 278 277 276 277 279
191 190 189 190 191 191 191 192 195 195 194 192 192 195 198 197 197 198 198 198 198 197 196 196 196 194 192 192 193 194 195 196 196 198 199 200 201 202 204 206 204 200 200 203 209 217 221 219 220 222 224 233 238 240 244 244 252 257 243 224 238 248 246 254 258 267 285 294 299 303 305 305 302 301 301 300 298 293 285 280 277 274 274 275 277
190 188 188 190 191 190 190 191 194 195 194 193 194 196 198 198 199 200 199 199 199 199 198 197 196 195 193 193 194 195 196 196 195 198 199 200 202 204 207 209 206 201 199 201 204 209 216 218 218 218 220 227 232 235 238 237 246 263 269 264 263 261 257 261 264 266 277 287 294 299 301 301 299 299 299 297 296 295 287 282 280 276 275 276 276
189 186 188 190 190 189 189 190 192 194 194 194 195 197 198 198 200 202 201 200 199 199 199 198 197 195 193 194 195 195 196 196 196 198 199 201 203 206 210 213 213 209 205 203 203 206 211 214 214 213 217 223 228 231 230 230 237 248 258 262 259 259 262 261 263 266 270 279 287 291 295 297 297 297 297 294 294 293 286 283 282 280 279 279 277
188 186 187 189 188 188 188 190 192 194 195 194 195 197 198 197 199 201 202 201 199 199 199 199 197 196 195 195 195 195 196 196 196 197 200 202 204 206 210 214 217 217 214 210 208 208 211 213 213 211 214 221 226 230 229 228 233 240 246 254 258 262 264 263 266 266 265 270 279 286 292 295 294 294 295 294 293 291 288 286 285 281 281 280 278
189 186 187 188 187 188 189 191 194 196 196 196 196 197 199 199 198 199 201 201 199 197 198 199 199 198 197 197 196 196 196 196 196 197 199 203 205 206 209 212 214 214 214 212 211 211 212 213 213 212 213 218 222 225 225 226 232 240 244 249 257 266 269 270 272 271 268 270 276 283 289 291 292 293 294 294 291 289 290 290 287 283 281 280 278
189 186 187 189 188 188 191 193 195 198 198 197 197 198 200 201 199 198 199 199 197 197 198 199 200 200 199 198 198 197 195 196 197 198 199 202 205 206 208 212 213 212 213 214 214 213 213 215 216 214 214 218 221 223 224 225 232 240 245 249 258 267 271 273 274 273 273 275 278 281 286 289 290 290 294 295 289 285 287 288 288 289 288 286 284
189 186 187 189 189 190 193 196 197 199 199 198 198 200 201 203 203 200 198 199 199 198 198 199 201 201 200 200 199 197 196 195 196 198 199 202 204 205 207 210 213 213 214 216 216 214 213 215 217 218 218 218 219 221 222 225 232 238 241 247 254 264 274 277 277 276 275 274 278 282 286 289 289 289 295 297 289 285 288 287 287 291 292 291 291
189 186 186 188 190 192 195 198 199 200 199 198 199 201 203 204 205 201 199 199 201 201 199 198 199 200 200 200 199 198 197 196 197 198 199 200 203 205 206 208 210 211 214 216 216 215 213 214 216 217 218 217 216 218 221 223 230 235 236 238 248 265 277 279 279 278 275 273 277 283 286 286 288 293 298 299 297 297 298 295 290 292 295 295 292
188 186 186 188 189 192 196 198 200 200 198 198 200 202 203 205 205 203 200 200 201 203 201 198 198 199 200 199 198 197 198 200 200 200 200 200 202 203 204 207 209 210 212 214 216 215 214 215 217 217 217 216 214 216 219 221 226 233 238 246 258 270 275 275 275 275 274 273 276 281 284 284 286 292 296 298 300 302 303 304 302 300 300 297 293
186 187 187 187 188 190 194 197 199 200 199 200 202 203 204 205 205 204 201 201 202 204 202 198 196 198 198 197 197 198 201 203 202 204 204 203 201 200 202 205 207 210 212 213 214 216 215 215 217 217 215 216 217 218 218 220 226 236 246 256 266 272 272 272 272 272 270 269 272 276 276 277 282 289 294 297 300 303 307 308 305 301 300 297 296
185 188 186 185 186 189 193 195 196 198 199 201 202 203 204 206 206 206 204 203 202 202 203 199 195 195 197 197 197 200 203 204 206 207 207 205 203 201 202 205 207 210 213 214 215 217 217 217 217 215 212 213 218 220 220 225 236 244 251 261 272 276 274 273 271 269 265 263 266 269 270 274 281 287 291 296 299 301 304 303 301 302 303 300 297
184 186 183 182 185 187 190 191 192 195 197 199 200 201 203 204 206 207 208 206 201 201 202 199 194 195 197 198 199 201 203 206 208 208 206 207 205 202 204 209 210 211 213 215 216 215 216 219 215 205 204 206 208 212 220 232 241 247 257 267 275 278 276 274 273 270 265 262 262 264 268 273 279 284 288 291 293 294 298 300 300 301 299 295 293
181 182 180 180 182 183 185 186 188 190 191 193 194 195 198 201 202 204 205 203 200 199 200 198 197 198 201 202 203 203 204 207 209 208 207 209 207 204 206 210 213 215 215 215 217 215 214 215 207 193 194 199 201 209 223 236 241 252 264 269 274 279 278 276 276 274 271 268 265 267 271 274 276 280 283 286 287 287 289 293 295 295 292 290 291
176 178 177 177 177 178 179 180 181 181 182 183 185 188 192 194 195 196 199 200 199 198 198 198 199 202 204 204 204 204 205 207 209 210 210 211 211 209 209 210 216 221 218 216 219 216 210 209 206 198 198 204 211 221 233 239 243 251 256 260 268 274 275 275 275 276 277 276 275 277 278 275 274 275 277 283 287 287 287 288 287 287 286 287 289
170 172 172 171 170 171 171 171 171 171 171 174 178 183 186 188 191 194 196 197 196 194 196 198 202 204 204 205 205 205 205 204 207 211 213 213 213 213 213 216 221 226 227 226 225 217 207 207 209 207 208 214 225 236 241 242 243 246 249 255 263 267 268 271 274 273 271 273 280 283 280 275 275 276 280 286 291 292 289 284 279 278 278 281 284
165 166 165 164 163 165 164 162 163 165 167 170 175 180 184 186 190 193 193 191 190 190 192 198 204 207 206 208 208 206 205 205 208 213 215 214 213 214 216 219 223 229 234 235 232 224 215 213 215 213 209 219 236 242 244 241 240 245 248 250 254 257 261 268 273 273 273 276 281 283 281 281 279 280 283 287 291 291 282 272 272 273 272 273 278
164 162 160 161 163 165 165 163 165 168 170 174 176 180 186 190 190 190 189 192 197 199 199 203 208 207 206 208 208 206 206 207 208 210 212 211 210 213 216 218 223 229 234 236 235 229 217 211 212 208 201 221 245 245 242 240 243 251 250 245 245 250 257 267 270 272 275 278 283 287 288 287 281 280 286 287 287 283 272 267 272 273 268 272 282
164 161 160 162 164 166 168 169 170 171 172 175 176 177 182 187 188 189 192 198 205 204 201 202 204 204 207 211 210 208 209 208 207 208 209 207 207 211 213 214 218 225 230 232 230 223 210 199 194 191 199 243 250 242 240 244 250 254 248 239 241 248 256 262 262 267 274 279 285 289 289 288 283 282 284 283 281 283 281 279 278 272 264 270 277
163 162 161 162 162 165 169 170 171 170 170 172 173 173 174 177 181 185 189 197 204 203 197 196 198 199 205 213 213 212 213 211 205 204 207 206 206 210 211 211 216 222 225 227 225 219 204 188 184 197 243 254 246 238 241 249 247 240 233 231 239 247 252 256 259 271 283 286 288 289 287 286 284 280 281 280 281 291 301 302 291 275 267 272 281
159 159 159 160 159 162 167 168 169 168 167 168 169 169 170 171 171 174 179 187 193 192 188 188 189 190 200 214 217 212 214 216 208 204 205 203 203 210 210 210 217 222 221 223 221 209 185 182 216 250 252 244 238 239 244 243 233 226 229 235 244 249 254 259 267 279 287 287 286 286 285 284 283 282 287 292 295 305 318 323 313 296 292 301 310
155 155 157 159 160 162 164 166 166 165 166 169 168 166 167 167 166 170 175 176 172 167 169 175 179 190 211 225 224 213 211 216 211 205 204 202 203 208 209 211 221 225 218 211 199 186 207 243 247 247 241 235 237 239 235 227 222 226 234 242 250 254 258 266 276 283 285 283 282 282 279 277 277 281 293 305 313 319 320 317 311 306 306 306 306
151 150 152 155 158 159 160 161 164 165 167 170 166 161 161 161 164 168 165 154 147 148 161 176 187 213 235 234 225 218 219 223 218 208 204 205 208 207 206 211 220 217 209 205 196 209 246 249 239 234 233 233 235 231 222 219 223 229 238 248 256 261 268 276 279 274 268 269 272 273 273 275 282 294 308 319 323 321 316 311 306 303 301 299 295
145 144 147 150 151 153 155 159 163 164 165 165 158 154 156 157 158 159 154 146 143 145 158 180 198 217 232 226 214 213 218 222 226 223 217 213 209 206 206 211 213 203 203 218 221 225 237 237 228 226 228 229 227 222 217 221 227 236 253 264 269 272 276 278 273 262 258 261 265 270 281 297 311 321 325 325 322 316 312 309 305 301 297 295 293
139 138 140 142 144 147 151 154 155 155 158 159 152 150 153 151 148 148 149 150 152 154 167 191 206 215 220 211 196 190 199 208 212 218 215 208 203 202 204 211 216 215 216 224 224 222 223 224 224 223 219 215 213 210 214 226 241 262 276 278 279 281 279 270 261 257 259 261 268 284 300 307 311 316 318 315 312 310 307 304 301 299 297 297 297
133 134 136 138 142 147 147 146 146 147 151 152 148 147 147 144 142 143 146 152 157 165 179 196 206 210 215 207 185 171 182 200 198 193 194 195 196 200 202 207 213 215 214 215 215 216 218 217 213 208 204 206 213 220 232 246 255 267 278 279 282 283 266 251 251 254 258 261 268 281 291 294 297 304 312 312 309 305 303 301 302 302 303 304 303
128 130 133 135 138 141 138 135 136 136 136 140 143 143 141 140 141 145 150 158 166 176 190 202 207 208 209 201 176 161 170 192 190 184 186 192 198 200 200 202 206 205 205 210 212 209 204 200 197 199 205 216 232 242 245 243 233 230 247 257 254 245 240 247 251 252 255 263 270 276 281 288 298 311 317 313 307 303 304 305 304 304 305 306 303
122 123 126 128 129 130 129 130 129 125 124 133 141 141 140 141 143 150 161 174 181 188 199 208 211 209 198 181 168 163 170 186 190 190 190 191 196 198 197 201 204 198 197 205 206 199 196 193 195 207 221 227 230 229 224 220 214 211 228 242 242 242 245 250 252 253 260 271 277 277 277 286 311 325 322 311 303 304 307 306 305 305 306 304 298
121 120 121 122 122 124 128 130 125 118 114 117 118 122 130 140 145 148 159 175 184 195 209 213 215 213 194 174 171 172 175 187 197 198 194 191 192 194 195 197 199 195 196 202 200 199 205 206 208 216 220 217 215 216 215 210 204 204 216 227 237 249 255 255 258 266 274 282 282 281 289 313 325 324 317 307 303 305 307 308 308 306 303 299 293
120 121 125 126 127 132 137 133 126 122 122 120 116 113 116 128 143 149 151 156 165 190 216 211 208 202 181 174 179 185 187 194 200 199 197 195 195 193 193 198 202 200 200 199 194 196 206 211 213 215 215 215 223 235 240 231 218 219 228 232 237 249 258 262 270 283 300 314 321 324 323 320 318 317 312 305 301 304 308 309 308 305 302 300 296
124 127 129 130 134 141 141 133 128 130 133 132 127 120 114 114 126 139 140 142 153 172 185 181 177 176 176 177 179 183 190 195 195 191 192 195 198 198 200 202 200 195 193 192 195 202 211 217 223 227 231 242 257 266 267 259 250 251 263 269 267 270 275 270 273 330 2 360 347 334 322 318 318 314 305 298 298 306 312 311 310 309 307 303 301
127 125 123 126 132 135 131 129 132 136 138 137 131 123 117 112 111 117 123 129 143 156 163 166 167 172 180 182 177 171 173 180 184 188 192 197 199 200 198 193 186 183 187 192 198 209 225 242 253 259 264 269 273 273 271 268 264 268 290 308 308 314 320 308 311 348 355 351 335 325 321 318 311 301 297 300 309 314 312 310 312 313 309 307 309
122 119 122 127 128 124 125 130 133 135 138 140 134 129 128 125 120 120 125 130 137 140 142 148 157 162 169 177 181 178 173 174 182 190 193 193 191 188 185 180 177 182 189 194 199 215 241 256 264 268 269 271 272 268 269 280 293 318 342 351 343 330 323 320 8 8 5 359 342 329 320 313 308 307 309 313 313 310 308 312 316 314 312 315 318
123 124 130 132 127 125 131 137 137 138 143 146 145 144 147 147 144 140 136 135 137 137 134 137 145 152 157 164 176 181 178 178 182 183 183 181 179 176 173 170 171 179 186 189 198 224 243 252 262 271 281 296 316 359 24 26 30 18 356 343 332 315 302 305 354 20 14 359 339 322 317 321 320 316 313 309 305 306 312 317 316 315 319 322 319
123 128 133 133 133 138 146 147 146 147 150 155 161 161 157 156 156 153 151 149 144 137 136 141 146 151 156 161 167 173 177 180 180 180 180 178 175 173 169 164 166 181 192 200 217 234 246 262 275 284 307 356 39 50 34 19 16 10 339 315 309 301 293 300 340 15 13 354 331 317 321 323 314 305 303 305 308 315 320 318 316 320 324 321 316
126 131 135 137 139 143 147 147 148 151 156 163 170 166 159 160 163 162 164 163 151 140 143 152 154 156 164 169 170 171 175 179 179 180 181 179 178 177 171 162 165 187 205 218 226 230 237 253 275 310 1 32 40 31 11 339 327 323 309 301 316 328 322 319 341 359 349 328 314 310 311 306 300 300 305 311 317 320 318 317 321 324 322 317 314
129 132 132 132 133 135 137 141 145 153 161 165 162 157 159 165 169 171 172 162 147 141 149 159 158 157 164 172 172 174 174 172 171 172 173 177 182 182 175 175 184 190 197 207 209 210 216 225 249 345 4 7 358 347 334 322 316 309 307 321 339 348 350 344 341 342 335 317 301 293 288 285 293 306 315 317 320 319 318 321 325 323 319 317 318
124 127 123 120 123 126 129 133 140 150 159 159 154 159 165 168 172 177 167 148 139 138 146 156 158 157 162 165 166 169 167 162 163 168 173 180 187 186 184 197 209 205 202 203 201 203 208 206 207 297 298 290 305 312 309 316 316 315 326 333 323 322 354 349 325 311 303 293 283 279 280 290 306 318 321 319 319 320 323 325 321 317 318 321 321
118 121 120 121 125 128 132 137 143 151 157 156 158 166 167 168 178 176 147 134 135 137 142 151 158 159 163 165 162 160 159 157 160 169 177 185 193 194 196 211 231 235 224 198 186 192 205 207 200 209 231 248 260 262 274 296 310 315 315 311 308 328 359 339 309 291 279 275 279 289 302 310 316 320 320 321 322 322 320 317 314 317 321 322 321
118 121 125 130 133 134 139 148 153 157 161 160 162 167 167 170 178 164 134 130 137 140 145 156 162 162 169 172 167 162 160 160 163 171 178 187 197 203 207 216 236 247 232 193 177 186 200 199 192 194 217 236 244 251 265 277 291 297 290 285 303 333 333 309 296 296 291 285 295 309 310 311 319 324 323 322 318 313 311 312 317 323 324 322 323
125 129 131 136 139 139 146 158 161 160 161 159 157 159 160 160 156 141 132 137 145 148 154 163 164 168 179 181 175 168 164 163 169 176 182 191 201 208 211 217 230 236 219 198 197 206 201 198 206 211 218 226 229 246 286 292 287 288 288 288 319 320 304 288 285 289 287 289 299 304 303 312 326 325 318 314 311 310 315 320 323 324 324 326 327
135 137 132 135 144 149 156 158 150 139 138 140 142 148 154 155 153 147 143 147 154 159 163 163 164 174 185 187 183 178 172 173 183 187 187 192 201 206 208 214 225 228 210 195 202 206 201 208 219 210 206 220 241 294 318 307 287 285 314 27 26 316 291 287 288 291 296 302 305 307 316 327 326 319 313 311 313 318 324 323 322 324 328 328 328
137 143 142 145 150 149 140 134 129 125 128 130 133 140 146 148 151 152 152 157 164 166 159 155 163 176 181 186 190 188 185 190 202 198 191 192 198 204 206 208 215 221 211 197 197 199 200 212 223 219 223 247 267 285 291 284 277 282 10 28 345 305 296 298 298 301 308 313 318 329 334 327 318 315 315 316 319 325 325 321 322 329 330 328 328
132 140 143 138 131 123 123 129 135 137 136 133 134 141 148 151 154 157 160 165 172 166 150 149 163 176 178 182 192 195 197 209 227 221 208 205 204 206 208 206 207 208 201 194 199 204 201 211 228 233 233 236 238 249 264 269 271 297 53 20 313 296 295 295 294 302 316 329 339 337 329 321 317 316 317 319 322 324 322 321 326 330 328 329 330
133 139 138 131 127 128 133 136 132 127 128 133 140 149 154 154 154 159 164 171 180 163 139 140 153 169 174 179 190 198 204 217 231 233 228 222 214 207 203 199 202 206 201 198 206 208 205 215 236 240 240 242 235 228 241 264 270 270 308 304 288 291 299 303 310 325 336 343 341 328 318 316 317 316 315 317 319 321 322 323 326 327 327 331 329
142 143 142 140 139 138 136 134 133 139 149 154 153 155 159 159 159 168 173 175 185 174 143 137 144 157 167 175 187 199 208 220 228 230 231 229 221 212 202 193 192 197 202 207 210 209 213 225 229 229 257 270 238 217 230 264 269 251 236 258 263 273 287 295 306 329 333 337 335 325 318 317 315 311 311 315 317 321 323 321 321 325 330 331 325
134 137 141 144 143 140 141 146 152 160 164 156 147 154 164 160 157 162 151 118 149 189 178 164 161 165 171 181 192 199 206 216 223 227 232 233 225 218 213 205 198 195 200 206 206 206 214 217 211 217 260 284 277 264 283 285 245 139 116 248 239 242 254 256 254 264 281 296 302 299 299 306 308 306 310 315 318 320 320 319 322 329 330 326 321
136 138 141 145 146 148 154 157 157 158 160 158 161 169 169 158 161 172 165 131 146 218 232 207 184 178 180 187 194 194 192 196 209 222 230 231 227 224 221 210 195 191 197 205 210 213 216 211 200 213 249 267 282 295 297 284 206 152 228 239 228 230 244 254 261 274 287 297 300 295 294 300 301 300 306 312 312 313 317 320 326 329 325 319 318
151 155 153 155 163 168 162 161 170 178 175 168 166 169 166 163 172 182 181 172 180 194 207 216 219 210 198 196 197 192 182 179 189 202 209 211 215 219 216 197 185 189 202 211 214 214 215 214 216 224 233 253 280 287 284 283 257 214 234 239 240 246 255 261 272 286 295 301 301 294 288 291 293 295 304 308 307 310 320 324 324 323 319 316 318
165 168 165 169 177 174 165 175 191 186 159 141 139 154 169 183 195 200 199 197 195 196 194 193 217 246 250 241 233 217 193 184 191 201 203 199 196 196 197 193 190 193 204 216 220 218 214 211 214 219 224 234 249 262 280 283 248 227 236 248 253 259 266 272 283 296 303 305 300 286 273 274 285 294 301 305 306 314 324 323 319 317 313 312 318
161 169 174 173 172 172 174 185 188 156 140 145 167 180 185 198 211 196 181 174 96 22 10 12 9 343 324 323 320 302 260 228 228 245 260 222 186 177 180 191 197 195 200 213 226 224 213 205 203 204 209 218 231 251 270 267 245 236 249 260 261 265 274 283 293 301 305 308 303 286 262 254 278 294 300 305 310 317 319 316 315 314 311 311 321
Height
736 739 742 746 749 752 756 759 761 764 766 769 771 772 774 776 778 781 782 784 786 787 789 791 793 796 798 800 802 804 806 808 809 811 812 814 815 816 816 817 817 817 819 821 823 824 824 825 825 826 827 828 829 830 831 831 832 831 832 832 832 833 833 833 833 832 831 831 831 831 830 830 829 828 828 827 826 826 825 825 825 824 824 823 822
731 734 738 741 745 748 752 755 758 760 763 765 767 768 770 772 775 777 778 780 782 784 786 788 790 793 795 797 799 800 802 804 806 808 810 812 813 814 815 815 815 814 815 816 818 821 822 822 823 824 825 826 827 828 829 830 830 830 830 830 830 831 831 831 831 831 829 829 829 829 828 828 827 826 826 825 824 824 823 822 822 822 822 821 820
726 730 734 737 740 744 748 751 754 756 759 761 763 764 766 769 771 773 774 777 778 781 783 784 787 789 791 794 795 797 798 800 802 804 806 809 810 811 812 812 813 812 812 812 814 817 819 820 820 821 823 824 825 826 827 827 828 828 828 829 829 829 830 830 830 829 829 827 827 827 826 826 825 824 824 823 822 821 820 819 819 819 819 818 818
722 726 730 733 737 740 744 746 749 752 754 756 758 760 762 765 767 769 771 773 775 777 779 781 783 785 787 789 791 793 795 796 799 800 802 804 806 808 809 810 811 812 812 812 813 814 816 817 818 818 820 821 822 823 824 825 826 826 826 827 827 827 828 828 828 828 828 826 825 825 825 824 824 823 822 821 820 819 818 817 817 816 815 815 815
718 721 725 729 733 736 739 742 744 747 749 751 753 755 758 760 762 765 768 770 771 773 776 778 780 781 783 785 786 789 791 793 795 797 799 800 802 805 807 808 810 811 812 812 812 813 814 815 815 816 817 818 819 821 822 823 823 824 824 825 825 825 826 826 827 826 826 825 824 823 823 822 822 821 821 819 818 817 815 815 814 813 812 812 812
712 716 720 724 728 731 734 736 739 741 744 746 749 751 754 756 758 760 763 765 767 769 771 773 775 777 779 781 783 785 787 789 791 793 795 797 799 801 804 805 807 808 810 810 811 811 812 813 813 814 815 816 817 818 819 820 821 821 822 822 823 823 824 824 824 824 824 823 822 821 821 820 819 819 818 818 816 814 813 812 811 811 810 809 808
707 711 715 719 722 725 728 730 733 736 738 742 745 747 749 752 754 756 759 761 764 765 767 769 771 773 776 778 780 782 784 786 788 790 792 794 796 798 800 803 804 805 807 808 809 809 810 811 811 811 812 813 815 816 817 818 818 819 819 820 820 821 821 822 822 822 821 821 820 819 818 818 817 816 816 815 814 812 811 809 808 808 807 806 805
702 706 710 714 717 720 722 725 727 730 734 738 741 743 745 747 749 752 755 757 760 761 763 765 767 770 772 775 777 779 781 782 784 786 788 790 792 794 797 799 801 803 804 805 806 807 807 808 809 809 809 811 812 813 814 815 815 816 817 817 818 818 819 819 819 819 818 818 817 816 816 815 815 814 814 813 811 810 809 808 806 805 804 803 802
697 701 705 708 712 715 718 720 723 727 731 734 737 739 741 744 746 748 751 753 756 759 760 762 764 767 770 772 774 776 778 779 780 782 784 786 788 791 794 796 798 800 801 802 803 804 804 805 805 806 807 807 808 809 810 811 812 813 814 814 815 815 815 816 816 815 815 815 814 814 813 812 812 812 811 811 809 808 807 806 804 803 802 800 799
692 696 699 703 707 710 714 717 720 723 727 730 732 734 737 740 742 745 747 750 753 756 758 760 762 764 767 769 771 773 775 776 777 778 780 782 784 787 790 793 795 796 798 799 800 801 801 802 802 803 804 804 805 806 807 808 809 810 811 811 811 812 812 812 812 812 812 812 811 811 810 810 809 809 809 808 807 807 805 804 802 801 800 797 796
687 692 695 698 703 706 710 713 716 720 723 726 728 731 734 737 740 742 745 747 751 754 756 757 759 762 764 766 768 770 772 773 774 776 777 779 781 784 787 789 791 793 794 795 797 798 798 799 799 800 800 801 802 803 804 805 806 807 808 808 809 809 809 809 808 808 809 808 808 808 807 806 806 806 806 805 805 805 804 802 801 799 797 795 793
683 687 690 695 699 702 706 709 713 717 720 723 726 729 732 735 738 741 743 746 749 751 753 754 756 759 762 764 765 767 768 770 771 773 775 777 780 783 785 787 788 789 791 792 793 795 796 796 797 796 797 798 799 800 801 803 804 804 805 806 806 806 806 805 805 804 805 805 805 805 804 803 803 803 803 803 803 803 802 800 799 797 795 794 791
679 683 687 691 694 698 702 706 710 714 717 721 724 727 731 733 736 739 741 744 746 748 750 752 754 757 759 761 763 764 765 766 768 771 773 776 779 781 783 785 786 787 788 789 790 791 792 794 794 793 794 795 796 798 799 800 801 802 802 802 802 802 802 802 801 801 802 802 802 801 801 801 801 800 801 801 801 800 799 798 797 795 793 792 789
675 680 684 688 691 695 699 703 707 712 715 719 722 725 729 731 734 737 739 741 744 745 747 749 751 754 755 757 759 761 762 763 766 769 771 773 776 779 781 783 784 785 786 786 787 787 789 790 791 791 791 792 794 795 796 797 798 799 799 799 799 799 799 798 798 798 798 799 799 798 798 798 798 798 799 799 798 797 796 795 794 792 790 788 786
672 677 681 685 688 692 697 701 706 710 714 718 721 724 727 729 732 735 736 739 741 742 745 747 748 750 752 754 756 759 760 761 763 767 769 771 774 776 779 780 781 782 783 783 784 785 785 787 788 789 789 790 792 793 794 795 795 796 797 796 796 796 795 795 795 795 795 796 795 795 795 796 796 795 796 796 795 795 793 792 791 789 786 784 783
670 674 678 682 687 690 695 700 704 708 712 716 719 722 724 727 730 732 734 737 739 740 743 745 746 748 750 752 754 756 758 759 762 765 767 769 771 774 777 778 778 779 780 781 782 782 783 784 785 786 788 789 791 793 793 793 793 793 793 793 793 793 792 792 793 793 794 793 793 793 793 793 793 793 793 793 792 792 790 789 788 786 783 781 780
668 672 676 681 685 689 694 698 702 706 710 713 716 719 722 725 727 729 732 735 737 739 742 743 746 748 749 751 752 754 756 758 760 761 763 766 768 771 774 776 776 777 778 779 781 780 780 781 782 784 786 789 791 791 791 791 790 790 790 790 790 791 790 791 791 791 791 791 791 791 791 791 791 791 791 791 790 789 788 786 784 782 780 779 777
666 670 674 679 683 688 692 696 701 705 708 711 715 718 720 723 726 728 731 733 736 738 740 742 745 747 749 750 751 753 754 755 756 758 760 763 766 769 771 773 775 776 777 778 778 777 776 776 778 781 784 787 789 789 789 789 788 787 788 788 789 789 789 789 789 789 789 789 789 789 789 789 789 788 788 788 787 786 785 782 780 779 779 778 776
665 668 673 678 682 686 690 694 698 702 707 710 713 716 719 722 725 728 731 733 735 737 739 740 743 745 747 749 750 751 753 753 754 756 759 761 764 766 768 770 772 774 775 776 775 773 772 773 775 778 782 785 787 787 786 786 786 785 786 787 787 788 788 788 788 787 787 787 787 787 787 787 787 786 786 785 783 783 781 779 777 777 777 776 775
663 668 673 677 681 685 689 693 696 700 704 709 712 715 718 721 724 727 729 732 734 737 738 740 741 743 745 747 748 750 751 752 753 754 756 759 761 763 765 767 769 771 772 773 773 773 773 773 774 777 780 783 784 784 784 784 783 784 785 785 786 786 786 786 786 785 785 785 785 785 785 784 784 784 783 781 781 780 779 777 776 776 776 775 774
661 667 671 676 681 685 689 693 696 698 703 706 709 713 716 718 721 724 727 730 732 735 737 739 740 741 744 745 747 748 749 750 752 753 755 757 759 761 763 765 767 768 769 771 773 774 774 774 774 776 778 780 781 781 781 782 782 782 783 784 784 784 784 784 784 784 783 783 783 783 783 782 782 782 781 780 779 778 777 776 776 776 775 774 772
660 665 670 675 679 683 687 691 694 697 700 704 707 709 712 715 717 720 724 727 729 733 736 738 739 741 743 745 746 747 748 750 751 752 754 756 758 761 762 764 766 767 769 772 774 774 774 774 772 773 775 777 778 779 779 780 780 781 781 781 782 782 782 782 782 782 782 782 781 781 781 781 780 780 779 778 777 776 775 775 775 774 773 773 772
658 662 668 673 677 681 685 688 691 694 698 701 704 706 709 712 715 718 721 723 727 731 735 737 739 741 743 744 745 746 748 749 750 752 753 755 757 759 761 762 764 766 768 770 770 770 771 771 770 771 774 775 776 777 778 778 779 779 779 779 780 780 780 780 780 780 780 780 780 780 779 779 779 778 778 777 776 775 774 774 773 773 772 771 770
657 661 667 672 676 680 684 687 691 694 697 700 702 704 708 711 714 717 721 723 726 730 734 737 739 741 742 743 744 745 746 747 749 750 751 753 755 757 759 761 762 764 766 767 767 767 768 768 769 771 773 774 775 776 777 777 777 777 777 777 777 778 778 777 778 778 778 779 779 778 778 778 777 776 776 775 774 773 773 772 772 771 770 768 767
658 662 667 671 676 680 685 689 692 694 697 700 701 704 707 709 711 715 720 723 726 729 733 736 738 740 741 741 742 743 744 745 747 748 749 752 754 755 757 759 760 762 764 765 766 766 766 768 769 770 771 772 774 775 776 776 776 775 775 775 775 775 776 776 776 777 777 777 777 776 776 776 775 775 774 773 773 772 772 770 769 768 767 765 764
659 663 667 672 677 682 686 689 692 695 698 701 702 706 708 709 711 715 719 723 726 728 731 734 736 738 739 739 740 742 742 743 745 746 749 751 752 754 756 757 759 761 763 764 765 765 766 767 768 769 771 772 773 774 774 774 774 774 774 774 774 774 774 774 775 775 775 775 774 774 774 773 773 772 772 772 771 771 770 768 767 765 764 763 761
660 665 669 674 679 682 685 689 693 696 700 702 705 708 710 712 714 717 720 723 726 728 730 733 734 736 737 738 739 741 742 743 744 745 747 749 751 753 754 756 758 760 761 763 763 764 766 767 768 769 771 771 772 772 772 772 772 772 772 772 772 771 771 772 772 772 772 772 772 771 771 771 771 770 770 770 770 769 768 767 765 763 762 761 758
662 667 671 675 679 683 686 689 693 696 699 703 706 708 710 713 716 719 721 723 725 726 729 731 732 734 735 737 738 740 742 742 742 744 746 747 749 751 753 755 757 759 760 762 763 764 766 767 768 769 770 770 770 770 770 771 770 770 769 769 769 769 769 770 770 770 770 770 769 769 769 769 769 769 768 769 768 767 767 765 763 762 760 758 756
664 668 672 676 680 683 687 690 693 696 700 703 705 707 710 714 717 719 722 723 724 725 727 729 731 733 734 735 737 738 739 740 741 742 744 746 748 750 752 754 756 757 759 761 762 764 765 766 767 767 767 768 768 767 767 768 767 767 767 767 767 768 768 768 768 768 768 768 768 768 768 768 768 767 767 767 767 766 765 763 762 760 758 756 754
665 669 673 676 680 683 686 690 694 697 700 704 705 706 709 714 718 720 723 724 725 726 727 728 730 731 733 734 735 736 737 738 740 742 744 746 747 749 751 753 754 756 759 761 762 763 764 764 765 765 765 765 765 765 765 765 765 765 765 765 766 766 766 767 766 766 767 767 767 767 767 767 766 766 766 766 765 764 763 762 760 758 756 754 752
667 671 674 678 681 684 687 691 694 697 700 703 704 705 708 715 719 722 723 724 725 726 727 728 730 731 732 733 734 736 737 738 740 742 743 745 747 748 750 752 754 756 758 759 761 762 762 762 762 762 763 763 763 763 763 763 763 763 763 764 765 765 765 765 765 765 765 766 766 766 766 766 765 765 765 764 763 762 761 760 758 756 754 752 750
668 672 676 680 684 687 689 692 695 698 702 704 705 705 708 714 720 723 724 725 726 727 728 728 730 731 732 733 734 735 737 739 740 742 743 745 746 748 750 751 753 754 756 758 759 760 760 760 761 760 761 761 761 761 761 761 761 762 762 762 763 764 764 764 764 764 764 764 765 765 765 764 764 764 763 763 762 761 760 758 756 755 753 751 749
670 674 679 683 687 690 692 694 698 701 703 705 705 706 710 715 719 722 724 726 727 727 727 728 729 731 732 733 735 736 738 740 741 742 743 744 746 747 749 750 751 753 755 757 758 759 759 760 760 760 760 760 759 759 760 760 760 761 761 762 763 763 764 764 764 764 764 763 763 764 764 764 763 763 762 762 761 760 758 757 755 754 751 750 748
673 676 679 683 688 691 693 696 700 702 703 704 705 707 711 714 717 720 722 724 726 727 727 728 729 730 732 734 735 737 739 740 741 743 744 745 746 747 749 750 751 753 754 756 757 758 758 759 759 759 759 758 758 758 759 759 759 760 761 762 763 763 764 764 764 763 761 761 763 763 763 763 763 762 762 761 760 758 757 755 754 752 751 749 747
676 678 680 683 688 691 694 697 700 702 704 705 706 708 710 713 715 718 720 722 724 726 727 728 730 731 732 734 736 737 739 740 741 743 744 746 747 748 749 750 752 753 754 755 756 757 758 758 759 759 758 758 758 758 759 759 760 760 761 762 762 763 763 763 763 761 760 761 763 764 763 763 763 762 761 760 758 757 756 755 753 751 750 749 747
677 679 681 684 687 691 694 697 700 703 705 706 707 708 709 711 714 716 718 720 722 724 726 728 729 730 732 734 735 737 738 740 741 743 744 746 747 748 749 750 752 753 754 755 756 757 757 758 758 758 758 758 758 759 759 760 760 760 761 761 762 762 762 762 762 761 761 762 763 763 763 763 762 761 760 759 758 757 755 754 753 751 750 748 746
678 680 682 685 687 690 694 697 700 703 705 706 706 707 708 711 713 714 716 718 720 722 725 726 728 730 731 733 735 736 737 739 741 742 744 745 747 748 749 750 751 752 753 754 755 756 757 757 757 757 757 758 758 759 759 759 760 760 761 761 761 761 761 761 761 761 761 762 762 762 762 761 761 760 759 758 757 756 755 753 752 750 749 747 744
680 682 684 686 688 691 694 697 700 703 705 706 706 707 708 710 712 713 714 716 718 721 724 726 727 729 730 732 734 735 737 738 740 741 743 744 746 747 748 749 750 751 751 753 754 755 755 756 756 757 757 758 758 758 759 759 760 760 760 760 760 760 760 761 761 761 761 761 761 761 760 760 760 759 759 758 757 755 754 753 751 749 747 746 743
682 684 687 689 691 694 697 698 701 703 704 705 706 707 708 710 711 712 714 716 718 721 724 726 728 729 730 731 733 735 736 738 739 740 742 743 745 746 748 749 749 750 750 751 752 753 754 755 755 756 757 758 758 758 759 759 760 760 760 760 760 759 759 760 761 761 760 760 760 760 760 760 759 759 758 757 756 755 754 752 751 749 747 745 743
684 687 690 692 695 697 698 700 701 702 703 704 706 707 708 709 710 712 714 716 719 721 723 726 728 728 729 730 731 733 735 737 738 740 741 743 744 746 747 748 748 749 749 750 751 752 753 754 754 755 756 757 757 758 758 758 759 759 759 759 758 758 759 760 761 760 760 759 759 759 759 759 759 758 758 757 756 755 753 751 750 748 746 744 742
687 689 691 693 696 698 699 700 701 702 703 704 705 707 708 709 710 712 715 717 719 721 723 725 727 728 729 730 731 732 734 736 738 739 741 742 744 745 745 746 747 747 748 749 749 750 751 752 753 754 755 756 756 757 757 758 758 758 758 757 756 758 760 760 760 759 759 759 759 759 759 759 758 758 757 756 755 754 752 751 749 747 746 744 742
689 690 691 693 696 697 698 700 701 702 703 705 705 707 709 710 711 713 715 717 719 721 722 724 726 727 729 730 731 732 734 735 737 738 739 741 742 743 744 745 746 746 747 747 748 749 751 752 752 753 754 755 755 756 756 757 757 757 757 756 756 758 760 759 759 759 758 758 758 758 758 758 758 757 757 755 754 753 751 750 749 747 745 744 742
690 691 692 694 695 697 698 700 701 703 705 706 707 708 709 710 712 714 715 717 719 720 722 724 725 726 728 729 731 732 733 734 735 736 737 739 740 741 742 743 744 744 745 746 747 749 750 751 752 752 753 753 754 755 756 756 756 756 755 755 757 759 759 759 759 759 758 758 758 758 758 758 757 757 756 755 753 752 751 750 748 747 745 743 741
690 692 693 695 696 697 699 701 702 704 705 706 708 709 710 711 713 714 715 716 717 719 721 723 724 726 728 729 730 732 733 733 734 735 735 737 738 738 740 741 742 743 744 745 746 748 749 750 751 751 752 752 753 754 755 755 755 754 754 755 758 759 759 759 759 758 758 758 758 758 758 758 757 756 755 754 753 752 751 749 748 746 745 743 741
691 693 695 696 697 699 701 702 703 705 706 707 709 710 710 712 712 713 715 716 717 718 720 722 724 726 728 729 731 732 732 733 734 734 734 735 736 737 738 739 741 742 743 744 746 747 748 749 750 750 751 751 752 753 754 754 753 752 752 755 758 759 759 759 758 758 757 758 758 758 758 757 756 756 755 754 753 752 750 749 748 746 744 743 741
693 694 696 698 699 700 702 703 705 706 707 708 709 710 711 712 713 714 715 716 717 718 720 722 724 726 728 729 730 731 732 732 733 733 733 734 734 736 737 738 739 741 742 743 745 746 747 748 749 750 750 751 751 752 753 752 751 750 751 754 757 758 758 758 757 757 757 758 758 758 758 757 756 755 754 753 752 751 750 749 747 746 744 743 741
695 696 698 699 700 702 703 705 706 706 707 708 709 710 711 712 713 714 716 717 717 719 720 721 723 725 727 728 729 729 730 731 731 731 732 733 733 735 736 737 738 740 741 743 744 745 746 747 748 748 750 750 750 751 752 751 750 750 751 753 755 756 757 757 757 757 757 757 757 757 757 756 756 755 754 753 752 751 750 748 747 745 744 743 741
696 697 699 700 702 703 704 705 706 707 707 708 709 710 711 712 713 715 716 717 718 719 719 720 721 722 723 725 725 726 727 728 729 730 731 731 732 734 735 736 737 739 740 742 743 744 745 746 747 748 748 749 750 750 751 750 750 751 751 752 754 755 756 757 757 757 757 757 756 756 755 755 755 754 753 752 752 750 749 748 747 745 744 742 740
697 698 699 701 702 703 704 705 706 706 706 707 708 709 710 712 713 714 715 716 718 719 719 719 719 719 720 721 722 723 724 725 727 728 729 730 731 733 734 735 736 738 739 741 741 742 743 744 745 747 748 748 749 750 750 750 750 751 751 752 753 754 755 756 756 756 756 755 755 754 754 754 754 753 753 752 751 750 749 748 746 745 744 742 740
698 698 700 701 702 703 704 704 705 705 705 706 707 709 711 712 712 713 714 715 716 716 717 717 718 718 719 720 721 721 722 723 725 726 726 727 729 730 732 734 736 737 738 739 740 741 741 742 744 745 746 747 748 749 749 749 749 750 750 752 753 754 754 755 755 755 755 754 753 753 753 753 752 752 752 751 750 749 748 747 746 745 743 741 739
699 699 700 701 702 703 703 703 703 703 704 705 707 709 711 711 712 713 714 715 715 715 716 717 718 719 719 720 720 721 721 723 724 725 725 726 727 728 730 732 734 735 737 738 739 739 740 741 742 743 745 746 747 748 748 748 748 749 750 752 753 753 753 754 754 754 753 752 752 751 751 751 751 751 751 750 750 749 748 747 746 744 742 741 739